NILESAT 301

Last updated on Fri Dec 19 2025 00:02:53 GMT+0000 (Coordinated Universal Time)

1 52817U 22061A 25352.55239461 -.00000033 00000+0 00000+0 0 9991 2 52817 0.0443 8.8743 0004394 289.5061 340.8915 1.00272236 12924
UTC large
Height (km)
Speed (km/s)
/
Latitude / Longitude
Inclination (degrees)
Orbital Period (minutes)
Azimuth
Elevation
Range (km)
Doppler Factor

Next 0 passes for location: London (51.5072 / 0.1276)

Sorry there are no passes over London.